User: anonymous   Login
Location: Haliburton Scout Reserve
(45.0900°N, 78.3200°W)
Time: 20:43:53
(UTC-04:00)
Language:

Oscar 11 - Orbit

View from above orbital plane
View from above orbital plane
View from above satellite
View from above satellite

Ground track
Ground track

The orbit data is extracted from the following two-line orbital elements,

1 14781U 84021B   22141.54182463  .00001573  00000-0  19654-3 0  9993
2 14781  97.6162 130.2052 0009756  56.8660 303.3490 14.83632239 36052
Epoch (UTC): 21 May 2022 13:00:13
Eccentricity: 0.0009756
inclination: 97.6162°
perigee height: 611 km
apogee height: 625 km
right ascension of ascending node: 130.2052°
argument of perigee: 56.8660°
revolutions per day: 14.83632239
mean anomaly at epoch: 303.3490°
orbit number at epoch: 3605

The dashed part of the orbit path shows where the satellite is in the earth's shadow,  

DLR